[[{"header":{"parameterUnit":"m.s-1","parameterCategory":1,"la1":30.2991,"la2":30.254,"lo1":-89.0895,"lo2":-89.0444,"dy":0.0017,"dx":0.0017,"nx":28,"ny":28,"refTime":"2023-08-24T09:00:00:Z","depth":0,"parameterNumber":2,"parameterNumberName":"U-component_of_WINDS"},"data":[0,0,0,0,0,0,0,0,0,0,0,0,0,0,0,0,0,0,0,0,0,0,0,0,0,0,0,0,0,0,0,0,0,0,0,0,0,0,0,0,0,0,0,0,0,0,0,0,0,0,0,0,0,0,0,0,0,0,-0.4307,-0.4308,0,-0.4332,-0.4333,-0.4333,-0.4337,-0.4337,-0.4337,-0.4337,-0.4363,-0.4364,-0.4365,0,0,0,0,0,0,0,0,0,0,0,0,0,-0.4265,-0.4266,-0.4307,-0.4308,-0.4308,-0.4332,-0.4333,-0.4333,-0.4337,-0.4337,-0.4337,-0.4337,-0.4363,-0.4364,-0.4365,0,0,0,0,0,0,0,0,0,0,0,0,0,-0.4286,-0.4266,-0.4307,-0.4313,-0.4314,-0.4332,-0.4333,-0.4333,-0.4337,-0.4337,-0.4337,-0.4336,-0.4362,-0.4364,-0.4365,-0.438,0,0,-0.4369,-0.437,0,0,0,0,0,0,0,0,-0.4285,-0.4288,-0.4312,-0.4313,-0.4314,-0.4331,-0.4327,-0.4349,-0.4337,-0.4328,-0.4337,-0.4336,-0.4353,-0.4355,-0.436,-0.4381,-0.4382,-0.4369,-0.437,-0.4371,-0.4371,0,0,0,0,0,0,0,-0.4283,-0.4287,-0.4317,-0.4312,-0.4313,-0.4315,-0.4318,-0.4331,-0.4342,-0.4329,-0.433,-0.4332,-0.4353,-0.4359,-0.4361,-0.4382,-0.4369,-0.437,-0.4371,-0.4372,-0.4417,-0.4418,0,0,0,0,0,0,-0.4281,-0.4285,-0.4316,-0.4318,-0.4298,-0.4316,-0.4319,-0.4326,-0.4342,-0.4344,-0.4333,-0.4333,-0.4357,-0.4359,-0.4362,-0.4381,-0.4371,-0.4372,-0.4373,-0.4417,-0.4417,-0.4418,0,0,0,0,0,0,-0.428,-0.4283,-0.4315,-0.4302,-0.4306,-0.4317,-0.4325,-0.4327,-0.4332,-0.4345,-0.4347,-0.4337,-0.4357,-0.436,-0.4375,-0.4382,-0.4372,-0.4374,-0.4416,-0.4417,-0.4418,-0.4418,0,0,0,0,0,0,-0.4279,-0.4283,-0.4288,-0.4302,-0.4307,-0.4328,-0.4325,-0.4327,-0.4335,-0.4335,-0.4349,-0.4351,-0.4357,-0.4373,-0.4377,-0.4383,-0.4375,-0.4416,-0.4417,-0.4417,-0.4418,-0.4419,-0.442,0,0,0,0,0,-0.4277,-0.4287,-0.4289,-0.4292,-0.4313,-0.4328,-0.4331,-0.4338,-0.4335,-0.4341,-0.4349,-0.435,-0.438,-0.4375,-0.4379,-0.4386,-0.4416,-0.4416,-0.4417,-0.4417,-0.4418,-0.442,0,0,0,0,0,0,-0.4274,-0.4289,-0.4291,-0.4306,-0.4316,-0.4329,-0.4336,-0.4339,-0.435,-0.4349,-0.4357,-0.436,-0.4375,-0.4382,-0.4376,-0.4401,-0.4398,-0.44,-0.4396,-0.4398,-0.4399,-0.4397,-0.4376,0,0,0,0,0,-0.4276,-0.4286,-0.4299,-0.4311,-0.4316,-0.4325,-0.4332,-0.4336,-0.4347,-0.4351,-0.436,-0.4371,-0.4383,-0.4391,-0.4402,-0.4419,-0.4422,-0.4426,-0.4426,-0.4427,-0.4429,-0.4439,-0.4441,-0.4421,-0.4421,-0.4421,0,0,-0.4278,-0.4288,-0.4294,-0.431,-0.4319,-0.433,-0.4329,-0.4341,-0.4349,-0.4353,-0.4368,-0.4375,-0.4388,-0.4404,-0.4412,-0.441,-0.4435,-0.4428,-0.4429,-0.443,-0.444,-0.4442,-0.4443,-0.4421,-0.4421,-0.4421,0,0,-0.4289,-0.4296,-0.4308,-0.4316,-0.4329,-0.4335,-0.4338,-0.4351,-0.4356,-0.4371,-0.4375,-0.4385,-0.4406,-0.4415,-0.4422,-0.4437,-0.4439,-0.4441,-0.4446,-0.4455,-0.4457,-0.4458,-0.4464,-0.4466,-0.4442,-0.4442,-0.4442,0,-0.429,-0.4307,-0.4313,-0.4325,-0.4333,-0.4337,-0.4349,-0.4357,-0.4373,-0.4378,-0.4376,-0.4402,-0.4411,-0.443,-0.4434,-0.4439,-0.4443,-0.4439,-0.4456,-0.4458,-0.4459,-0.4465,-0.4467,-0.4442,-0.4442,-0.4442,-0.4442,0,-0.4309,-0.432,-0.4328,-0.4343,-0.4352,-0.4364,-0.4372,-0.438,-0.4384,-0.4391,-0.4407,-0.4418,-0.4432,-0.4437,-0.444,-0.4456,-0.4455,-0.4454,-0.4451,-0.4461,-0.4467,-0.4469,-0.4442,-0.4442,-0.4442,-0.4442,0,0,-0.4318,-0.4337,-0.434,-0.4347,-0.4362,-0.4371,-0.4383,-0.4397,-0.4404,-0.4415,-0.4426,-0.4444,-0.4444,-0.4452,-0.4457,-0.4465,-0.4477,-0.4464,-0.4464,-0.4466,-0.4496,-0.4497,-0.4499,-0.4479,-0.4479,-0.4479,-0.4495,0,-0.433,-0.4352,-0.4359,-0.4377,-0.4389,-0.4393,-0.4404,-0.4415,-0.4422,-0.4433,-0.444,-0.4453,-0.4452,-0.4457,-0.4465,-0.4474,-0.4483,-0.4473,-0.449,-0.449,-0.4487,-0.4502,-0.4502,-0.4517,-0.4498,-0.4498,-0.4498,0,-0.4348,-0.4359,-0.4379,-0.4393,-0.4398,-0.4408,-0.4421,-0.4431,-0.4444,-0.4448,-0.4458,-0.4462,-0.4476,-0.4472,-0.4492,-0.4484,-0.4492,-0.4497,-0.4498,-0.45,-0.4495,-0.4505,-0.4521,-0.4524,-0.4502,-0.4501,-0.4501,0,-0.4353,-0.4374,-0.4388,-0.4394,-0.4411,-0.4417,-0.4425,-0.4437,-0.4445,-0.4457,-0.4463,-0.4476,-0.4484,-0.4494,-0.4503,-0.4499,-0.4522,-0.4518,-0.4526,-0.4526,-0.4531,-0.4531,-0.4549,-0.4535,-0.4535,-0.4535,-0.4535,0,-0.4367,-0.4379,-0.4391,-0.44,-0.4414,-0.4422,-0.4435,-0.4443,-0.4454,-0.4465,-0.447,-0.448,-0.449,-0.4502,-0.4508,-0.4524,-0.4527,-0.4531,-0.4533,-0.4531,-0.4531,-0.4536,-0.4536,-0.4536,-0.4536,-0.4535,-0.4535,0,-0.4375,-0.4384,-0.44,-0.4414,-0.4418,-0.4428,-0.444,-0.445,-0.4457,-0.4471,-0.4475,-0.4486,-0.4501,-0.451,-0.4528,-0.4532,-0.455,-0.4551,-0.4546,-0.4546,-0.4554,-0.4554,-0.4578,-0.4581,-0.4564,-0.4564,-0.4565,0,-0.4383,-0.4393,-0.4408,-0.4416,-0.4423,-0.4435,-0.4444,-0.4452,-0.4461,-0.4476,-0.4484,-0.4498,-0.451,-0.4533,-0.4544,-0.4558,-0.456,-0.4567,-0.4562,-0.456,-0.456,-0.456,-0.4561,-0.4568,-0.4568,-0.4568,-0.4568,0,-0.4397,-0.4401,-0.4413,-0.4426,-0.4436,-0.4447,-0.4459,-0.4465,-0.4475,-0.4485,-0.45,-0.4509,-0.4528,-0.4543,-0.4558,-0.4566,-0.4569,-0.457,-0.4573,-0.4571,-0.4568,-0.457,-0.4548,-0.4569,-0.4569,-0.4569,-0.4569,-0.4569,-0.4406,-0.4415,-0.4427,-0.444,-0.445,-0.446,-0.447,-0.4479,-0.4491,-0.4507,-0.4511,-0.4527,-0.454,-0.456,-0.4569,-0.4581,-0.4581,-0.4584,-0.4585,-0.4586,-0.4587,-0.4565,-0.4584,-0.4584,-0.4584,-0.4584,-0.4584,0,-0.442,-0.4429,-0.4441,-0.4456,-0.4467,-0.4469,-0.4482,-0.4491,-0.4504,-0.4516,-0.4528,-0.4545,-0.456,-0.4571,-0.4586,-0.4594,-0.4596,-0.4598,-0.4598,-0.46,-0.4586,-0.4583,-0.4596,-0.4596,-0.4596,-0.4596,-0.4596,-0.4596,-0.4429,-0.4444,-0.445,-0.447,-0.4479,-0.4494,-0.4501,-0.4511,-0.4521,-0.454,-0.4552,-0.4559,-0.4571,-0.4587,-0.4601,-0.4604,-0.461,-0.4611,-0.4615,-0.4602,-0.4601,-0.4599,-0.4596,-0.4612,-0.4612,-0.4627,-0.4627,-0.4627]},{"header":{"parameterUnit":"m.s-1","parameterCategory":1,"la1":30.2991,"la2":30.254,"lo1":-89.0895,"lo2":-89.0444,"dy":0.0017,"dx":0.0017,"nx":28,"ny":28,"refTime":"2023-08-24T09:00:00:Z","depth":0,"parameterNumber":3,"parameterNumberName":"V-component_of_WINDS"},"data":[0,0,0,0,0,0,0,0,0,0,0,0,0,0,0,0,0,0,0,0,0,0,0,0,0,0,0,0,0,0,0,0,0,0,0,0,0,0,0,0,0,0,0,0,0,0,0,0,0,0,0,0,0,0,0,0,0,0,-0.1433,-0.1434,0,-0.1523,-0.1524,-0.1525,-0.1597,-0.1598,-0.1599,-0.1599,-0.1694,-0.1695,-0.1697,0,0,0,0,0,0,0,0,0,0,0,0,0,-0.1324,-0.1326,-0.1433,-0.1434,-0.1435,-0.1523,-0.1524,-0.1526,-0.1597,-0.1598,-0.1599,-0.16,-0.1693,-0.1695,-0.1697,0,0,0,0,0,0,0,0,0,0,0,0,0,-0.1389,-0.1326,-0.1433,-0.1481,-0.1487,-0.1523,-0.1524,-0.1526,-0.1597,-0.1598,-0.1599,-0.16,-0.1692,-0.1695,-0.1698,-0.1693,0,0,-0.1706,-0.1707,0,0,0,0,0,0,0,0,-0.1385,-0.1392,-0.1473,-0.1478,-0.1484,-0.155,-0.1521,-0.1582,-0.1597,-0.1555,-0.1599,-0.1601,-0.1645,-0.1652,-0.1666,-0.1698,-0.1702,-0.1706,-0.1708,-0.1709,-0.171,0,0,0,0,0,0,0,-0.138,-0.1389,-0.1469,-0.1474,-0.1481,-0.1499,-0.151,-0.1533,-0.1593,-0.1559,-0.1564,-0.1574,-0.1648,-0.1664,-0.1669,-0.1703,-0.1706,-0.1709,-0.171,-0.1712,-0.1736,-0.1735,0,0,0,0,0,0,-0.1368,-0.1385,-0.1466,-0.1471,-0.1436,-0.15,-0.1512,-0.1528,-0.1593,-0.1604,-0.1573,-0.1577,-0.1658,-0.1666,-0.1673,-0.1672,-0.1709,-0.1712,-0.1713,-0.1737,-0.1736,-0.1735,0,0,0,0,0,0,-0.1365,-0.1374,-0.1462,-0.143,-0.1442,-0.1501,-0.1518,-0.1529,-0.1544,-0.1604,-0.1615,-0.1577,-0.1659,-0.1669,-0.1688,-0.1676,-0.1713,-0.1716,-0.1738,-0.1737,-0.1735,-0.1671,0,0,0,0,0,0,-0.1362,-0.1373,-0.1372,-0.1429,-0.1444,-0.1475,-0.1518,-0.153,-0.1549,-0.1555,-0.1611,-0.1621,-0.1661,-0.1683,-0.169,-0.1681,-0.1718,-0.174,-0.1738,-0.1736,-0.1674,-0.1667,-0.1661,0,0,0,0,0,-0.1358,-0.135,-0.1371,-0.138,-0.1443,-0.1474,-0.1482,-0.1528,-0.1548,-0.1547,-0.1585,-0.1619,-0.1676,-0.1684,-0.1693,-0.1684,-0.174,-0.1738,-0.1736,-0.1677,-0.1668,-0.1661,0,0,0,0,0,0,-0.129,-0.1358,-0.1383,-0.1393,-0.1427,-0.1486,-0.1486,-0.1518,-0.1547,-0.1552,-0.1608,-0.162,-0.1633,-0.1661,-0.1668,-0.1684,-0.1713,-0.1712,-0.1665,-0.1657,-0.1651,-0.1644,-0.172,0,0,0,0,0,-0.1277,-0.1296,-0.1354,-0.1358,-0.1374,-0.1427,-0.1442,-0.1475,-0.1512,-0.1527,-0.1567,-0.1602,-0.1629,-0.1645,-0.1672,-0.1678,-0.1692,-0.1677,-0.167,-0.1665,-0.1663,-0.1669,-0.1663,-0.1727,-0.1727,-0.1727,0,0,-0.1249,-0.1288,-0.1297,-0.1346,-0.1376,-0.1395,-0.1439,-0.1457,-0.1472,-0.153,-0.155,-0.158,-0.1624,-0.1636,-0.1644,-0.166,-0.1649,-0.1662,-0.1657,-0.1659,-0.1666,-0.166,-0.1654,-0.1726,-0.1726,-0.1726,0,0,-0.1207,-0.1239,-0.1246,-0.1275,-0.132,-0.1355,-0.1356,-0.1411,-0.1433,-0.1454,-0.1498,-0.1517,-0.1561,-0.159,-0.1611,-0.158,-0.1613,-0.1588,-0.1554,-0.1559,-0.1554,-0.1549,-0.1538,-0.1534,-0.1586,-0.1586,-0.1586,0,-0.1167,-0.1197,-0.1245,-0.126,-0.1281,-0.1334,-0.1342,-0.1368,-0.1419,-0.1432,-0.145,-0.1506,-0.1539,-0.1559,-0.1552,-0.1567,-0.157,-0.1581,-0.155,-0.1547,-0.1543,-0.1534,-0.1529,-0.1583,-0.1583,-0.1584,-0.1584,0,-0.1145,-0.1165,-0.1165,-0.1212,-0.1233,-0.1244,-0.1295,-0.131,-0.134,-0.1374,-0.1395,-0.1437,-0.1473,-0.148,-0.1511,-0.1505,-0.1513,-0.154,-0.157,-0.1533,-0.1525,-0.1521,-0.1578,-0.1579,-0.158,-0.1581,0,0,-0.1063,-0.1138,-0.1137,-0.1159,-0.1213,-0.1229,-0.1243,-0.1279,-0.129,-0.1324,-0.1338,-0.1373,-0.1398,-0.1421,-0.1456,-0.146,-0.1433,-0.1486,-0.1488,-0.1474,-0.1429,-0.1409,-0.1403,-0.1455,-0.1454,-0.1454,-0.1425,0,-0.103,-0.1057,-0.1102,-0.1115,-0.1134,-0.1185,-0.1197,-0.1232,-0.1263,-0.1285,-0.1321,-0.1345,-0.1376,-0.139,-0.1397,-0.1435,-0.1425,-0.1437,-0.1468,-0.1469,-0.1455,-0.1399,-0.1378,-0.1349,-0.1422,-0.1422,-0.1422,0,-0.0995,-0.1026,-0.104,-0.1092,-0.1102,-0.1112,-0.1148,-0.1168,-0.1208,-0.1231,-0.1257,-0.1294,-0.1312,-0.1339,-0.1365,-0.1373,-0.1388,-0.1409,-0.1409,-0.1413,-0.1442,-0.1402,-0.134,-0.1336,-0.1417,-0.1417,-0.1418,0,-0.0934,-0.0979,-0.0993,-0.1011,-0.1072,-0.1078,-0.1104,-0.1145,-0.1164,-0.1195,-0.1208,-0.1241,-0.126,-0.1285,-0.133,-0.1346,-0.1351,-0.1382,-0.1371,-0.1369,-0.1369,-0.1368,-0.1309,-0.1379,-0.1379,-0.1379,-0.1379,0,-0.0892,-0.0899,-0.0966,-0.0975,-0.0985,-0.1036,-0.1044,-0.1075,-0.1111,-0.1127,-0.1174,-0.1188,-0.1247,-0.1269,-0.1304,-0.132,-0.1328,-0.1347,-0.1357,-0.1343,-0.134,-0.1354,-0.1357,-0.1378,-0.1378,-0.1379,-0.1379,0,-0.0825,-0.087,-0.089,-0.0946,-0.096,-0.0965,-0.1013,-0.1024,-0.1059,-0.1079,-0.1086,-0.1141,-0.1169,-0.1216,-0.1258,-0.1282,-0.129,-0.1307,-0.1276,-0.1282,-0.1268,-0.1268,-0.1214,-0.121,-0.1283,-0.1282,-0.1281,0,-0.0795,-0.0802,-0.0859,-0.0872,-0.0896,-0.0918,-0.0937,-0.0988,-0.1006,-0.1052,-0.1057,-0.1089,-0.1116,-0.1158,-0.1202,-0.1234,-0.1251,-0.123,-0.1256,-0.1242,-0.125,-0.1249,-0.125,-0.1223,-0.1222,-0.1221,-0.1221,0,-0.0738,-0.076,-0.0785,-0.0818,-0.0839,-0.0867,-0.0898,-0.0907,-0.0965,-0.0983,-0.1011,-0.1033,-0.1075,-0.1105,-0.1143,-0.1171,-0.1205,-0.1212,-0.1211,-0.1197,-0.1179,-0.1188,-0.126,-0.1213,-0.1214,-0.1214,-0.1215,-0.1215,-0.0688,-0.0696,-0.0737,-0.0764,-0.0792,-0.082,-0.0833,-0.0869,-0.0894,-0.0931,-0.096,-0.0986,-0.1027,-0.1082,-0.1107,-0.1129,-0.1145,-0.1143,-0.1143,-0.1142,-0.1136,-0.1176,-0.1136,-0.1137,-0.1137,-0.1137,-0.1137,0,-0.0633,-0.0662,-0.0686,-0.0727,-0.0748,-0.0778,-0.0814,-0.083,-0.0852,-0.0887,-0.0913,-0.0946,-0.0975,-0.1021,-0.1055,-0.1063,-0.108,-0.107,-0.107,-0.1075,-0.112,-0.1118,-0.1056,-0.1056,-0.1056,-0.1056,-0.1056,-0.1056,-0.0606,-0.0621,-0.0648,-0.0678,-0.0708,-0.0733,-0.0751,-0.0777,-0.0805,-0.0839,-0.0864,-0.0893,-0.0933,-0.097,-0.0998,-0.1011,-0.1021,-0.1006,-0.1024,-0.1065,-0.1072,-0.108,-0.1077,-0.1008,-0.1008,-0.0977,-0.0977,-0.0977]}]]